Temp
61 61 61 60 59 59 60 59 59 59 60 61 61 61 62 61 62 79 72 74 72 70 69 78 80 77 73 70 69 67 48 44 48 50 51 57 55 58 61 56 56 58 58 61 64
61 61 61 60 59 59 59 59 58 59 60 61 61 61 61 60 70 73 77 72 70 69 76 75 75 75 70 66 64 58 48 49 58 56 53 57 55 56 53 50 53 55 60 61 61
61 60 60 60 60 59 59 58 58 59 60 61 61 61 61 60 72 74 75 73 71 71 74 74 74 73 66 66 62 57 49 55 57 60 60 58 55 58 53 48 54 53 56 59 60
60 60 60 60 59 59 58 58 58 59 60 60 61 61 61 69 60 75 75 75 73 74 78 80 75 68 61 60 62 54 60 59 60 61 59 55 58 55 54 54 60 60 61 59 59
59 59 59 59 59 59 58 58 58 58 59 60 61 62 67 68 68 82 75 78 82 80 78 76 72 66 60 62 65 59 60 63 63 61 58 61 55 54 52 56 61 62 62 59 59
59 59 58 58 58 58 58 57 57 58 59 60 61 61 67 62 80 81 81 82 81 82 78 77 73 72 66 61 59 62 62 60 61 59 59 56 55 55 55 57 60 62 59 58 58
59 59 58 58 58 57 57 57 57 58 59 60 61 68 66 66 78 77 81 80 82 84 78 78 76 71 66 62 68 64 55 58 58 56 55 58 51 47 57 60 60 60 59 57 57
60 59 57 57 57 57 57 56 57 58 59 60 61 65 63 80 75 82 81 82 83 82 79 79 78 71 66 65 63 58 54 46 56 58 59 54 41 55 59 59 56 58 57 56 55
59 59 57 57 56 56 56 57 58 59 60 61 65 66 62 79 77 78 78 78 80 80 79 83 75 64 65 59 50 50 42 45 50 59 57 52 45 53 57 58 55 54 54 54 53
59 59 58 57 56 55 55 58 60 62 71 75 75 62 70 68 74 78 79 81 77 75 73 70 62 56 55 49 43 46 46 49 46 55 54 48 47 51 54 56 54 52 51 52 53
59 59 58 57 57 55 53 61 61 61 66 61 64 64 68 75 76 76 77 77 75 71 60 64 57 50 58 56 58 57 51 49 49 57 54 48 46 52 52 52 50 50 50 51 53
58 58 57 57 56 55 52 59 62 61 55 70 70 68 72 72 68 72 77 69 66 59 63 58 51 60 64 63 61 55 52 48 51 55 55 45 44 51 51 52 54 53 50 51 52
58 58 57 56 55 55 55 59 64 63 53 65 68 66 68 72 64 66 71 66 64 59 58 54 58 65 64 58 59 54 53 50 51 54 52 49 42 48 53 54 55 55 57 55 55
57 57 57 55 54 54 54 64 62 61 45 56 63 67 70 69 62 70 72 66 63 58 57 56 62 60 59 57 57 52 58 58 54 48 42 52 39 43 51 54 55 55 53 53 55
57 57 57 56 50 54 61 61 60 59 26 58 63 72 68 64 64 66 70 68 59 58 57 51 55 55 54 56 59 55 60 58 55 47 44 45 42 46 51 50 54 55 55 54 57
55 56 56 55 48 56 59 58 57 36 27 54 61 62 61 62 63 64 64 68 66 58 57 54 60 57 55 60 60 60 57 53 50 46 36 47 46 42 44 53 56 57 58 57 58
54 55 55 59 53 57 57 53 35 26 54 51 54 60 59 56 59 59 57 54 50 45 44 53 54 58 59 54 58 55 46 31 33 30 32 51 45 51 55 58 60 60 59 58 59
54 54 55 57 54 54 53 45 26 43 47 57 57 58 54 58 56 55 54 49 54 53 44 44 42 52 59 53 51 49 48 33 32 29 38 51 43 48 58 63 63 66 63 60 57
53 51 51 54 55 55 47 27 34 44 53 52 54 51 52 56 56 54 50 50 54 56 45 41 44 54 57 57 55 50 43 50 41 39 36 44 50 55 58 58 59 59 58 56 57
51 49 50 59 59 52 40 38 46 55 56 53 45 51 47 51 52 51 51 56 56 57 55 50 40 53 54 56 55 51 54 40 32 28 30 38 42 44 52 54 56 54 54 55 57
48 46 54 56 59 44 31 37 51 60 59 53 48 47 52 50 50 49 51 55 57 55 56 51 41 44 51 47 46 46 43 43 41 35 30 28 39 52 53 56 56 54 54 53 55
47 42 53 55 46 39 34 46 55 57 57 54 52 50 50 52 50 50 50 52 56 58 52 51 40 34 44 51 53 49 47 45 30 32 32 33 37 55 53 55 55 57 57 55 58
44 47 53 51 35 39 46 52 55 55 54 53 50 52 52 51 46 50 50 55 58 55 52 51 39 31 39 44 46 43 43 36 34 36 35 28 36 56 56 55 55 53 54 54 53
45 35 44 46 45 46 48 47 48 57 55 55 53 53 48 47 52 48 48 54 56 52 52 52 43 38 33 38 37 34 37 32 34 30 34 35 43 50 51 51 51 51 51 52 52
44 38 45 34 38 45 51 50 48 49 55 55 48 50 47 42 45 46 48 49 53 52 50 48 38 37 41 48 46 45 42 39 35 41 36 47 45 52 51 50 52 52 52 51 51
39 41 45 43 47 45 47 45 50 52 52 49 48 50 49 43 46 42 47 47 47 47 47 47 38 40 37 45 46 43 46 45 43 45 42 45 44 56 55 54 52 52 52 50 50
47 49 47 44 45 43 44 50 50 53 54 56 52 50 47 50 52 50 52 52 51 47 44 43 36 34 33 42 40 32 42 46 45 45 44 37 46 51 52 52 50 51 52 51 50
MSLP
1023.12 1022.90 1022.59 1022.17 1021.88 1021.62 1021.02 1020.44 1019.84 1019.30 1018.71 1018.36 1017.68 1017.25 1016.46 1015.40 1014.35 1013.55 1013.34 1013.40 1013.27 1013.04 1012.91 1012.37 1012.11 1012.47 1013.13 1014.11 1014.85 1015.95 1019.45 1021.84 1022.48 1023.10 1023.81 1024.16 1024.87 1025.79 1025.99 1026.14 1026.27 1026.45 1026.56 1026.66 1026.55
1023.25 1022.87 1022.54 1022.23 1021.88 1021.56 1021.10 1020.53 1019.76 1019.20 1018.73 1018.10 1017.52 1017.23 1016.56 1015.84 1015.17 1013.96 1013.08 1013.00 1012.83 1012.80 1012.86 1012.65 1012.56 1012.79 1013.60 1014.71 1015.63 1017.12 1019.78 1021.29 1021.90 1022.63 1023.59 1024.34 1025.24 1025.99 1026.58 1026.64 1026.87 1026.93 1026.80 1026.91 1026.95
1023.25 1022.92 1022.53 1022.12 1021.92 1021.42 1021.23 1020.59 1019.74 1018.98 1018.69 1018.05 1017.17 1016.95 1016.21 1015.89 1015.14 1013.95 1012.78 1012.57 1012.57 1012.40 1012.66 1012.32 1012.72 1013.35 1014.65 1015.37 1016.94 1018.38 1020.30 1021.26 1022.14 1022.43 1023.49 1024.77 1025.71 1026.07 1026.55 1027.09 1027.33 1027.27 1027.25 1027.36 1027.51
1023.32 1022.99 1022.63 1022.13 1021.84 1021.41 1021.12 1020.59 1019.73 1018.91 1018.50 1018.01 1017.17 1016.63 1015.85 1015.38 1015.29 1013.78 1013.12 1012.50 1011.81 1012.40 1012.53 1012.21 1012.89 1014.13 1015.81 1016.89 1017.74 1019.85 1020.96 1021.37 1022.42 1023.10 1024.08 1025.19 1025.79 1026.32 1026.62 1026.83 1026.84 1027.24 1027.61 1027.84 1028.13
1023.35 1022.96 1022.63 1022.11 1021.60 1021.47 1021.03 1020.28 1019.66 1018.92 1018.32 1017.86 1017.13 1016.59 1015.66 1015.51 1015.12 1013.76 1013.31 1012.31 1011.82 1011.88 1012.41 1012.75 1013.63 1015.14 1016.60 1018.16 1018.43 1020.09 1021.61 1022.28 1022.92 1023.84 1024.91 1025.36 1026.44 1026.73 1027.07 1027.29 1027.49 1027.70 1027.87 1028.12 1028.24
1023.36 1022.93 1022.60 1022.03 1021.59 1021.34 1020.82 1020.04 1019.51 1018.86 1018.09 1017.66 1017.17 1016.50 1016.04 1015.70 1014.59 1013.93 1013.32 1012.41 1012.02 1011.80 1012.59 1012.60 1014.78 1015.66 1017.19 1018.39 1018.96 1020.98 1022.03 1023.18 1023.76 1024.38 1025.30 1026.07 1026.88 1026.88 1027.77 1027.73 1027.93 1028.16 1028.26 1028.20 1028.41
1023.24 1022.97 1022.67 1021.99 1021.60 1021.12 1020.60 1019.85 1019.19 1018.60 1017.89 1017.42 1017.30 1017.01 1016.39 1015.59 1014.66 1014.07 1013.48 1013.08 1012.47 1012.32 1013.23 1013.87 1014.49 1015.44 1017.40 1019.07 1020.34 1021.28 1022.38 1023.87 1024.46 1024.75 1025.71 1025.58 1026.96 1027.50 1027.52 1027.86 1028.03 1028.25 1028.42 1028.47 1028.66
1023.16 1022.84 1022.75 1022.15 1021.63 1021.00 1020.43 1019.58 1018.83 1018.14 1017.55 1017.09 1017.06 1016.85 1016.27 1014.96 1014.55 1014.09 1013.80 1013.46 1013.00 1013.14 1013.59 1014.17 1014.54 1016.36 1018.02 1019.51 1021.04 1022.00 1022.83 1023.87 1024.27 1024.44 1024.92 1025.44 1027.44 1027.49 1027.34 1027.71 1028.08 1028.46 1028.61 1028.83 1029.09
1022.97 1022.87 1022.75 1022.31 1021.73 1021.05 1020.09 1019.07 1018.24 1017.75 1017.13 1016.99 1016.78 1016.50 1016.24 1014.96 1014.88 1014.86 1014.71 1014.59 1013.94 1013.98 1014.38 1014.63 1015.70 1017.67 1019.09 1020.08 1021.69 1022.49 1023.49 1023.78 1024.13 1023.82 1024.07 1025.27 1026.87 1027.09 1027.11 1027.66 1028.21 1028.56 1028.80 1029.05 1029.36
1022.91 1022.86 1022.95 1022.49 1021.67 1021.02 1019.78 1018.46 1017.48 1017.50 1016.62 1016.62 1016.77 1016.92 1016.28 1016.17 1015.68 1015.38 1014.76 1014.58 1014.67 1014.73 1015.24 1015.89 1017.42 1018.86 1020.37 1020.69 1021.53 1022.25 1023.05 1023.35 1023.34 1023.51 1023.90 1025.04 1025.84 1026.48 1026.87 1027.34 1027.87 1028.37 1028.72 1028.87 1029.05
1022.84 1022.97 1022.86 1022.49 1021.69 1021.13 1020.22 1018.47 1018.74 1018.31 1017.61 1017.66 1017.39 1016.84 1016.48 1015.99 1015.69 1015.69 1015.48 1015.30 1015.40 1015.76 1016.64 1017.21 1018.09 1019.27 1019.83 1020.05 1020.30 1020.86 1021.76 1022.38 1022.77 1022.66 1023.77 1024.73 1025.56 1026.15 1026.58 1027.11 1027.57 1027.86 1028.36 1028.48 1028.38
1022.94 1022.99 1022.83 1022.39 1021.81 1021.37 1021.04 1020.36 1020.24 1020.55 1019.16 1017.78 1017.08 1016.87 1016.54 1016.21 1016.15 1016.29 1015.68 1016.06 1016.51 1017.03 1017.52 1018.41 1018.92 1018.85 1019.31 1019.80 1020.12 1020.38 1021.24 1022.20 1022.30 1022.40 1023.34 1024.63 1025.17 1025.70 1026.05 1026.07 1026.30 1026.87 1027.34 1027.80 1028.11
1022.94 1023.04 1022.94 1022.35 1021.86 1021.52 1021.20 1020.55 1020.13 1020.08 1020.05 1018.17 1017.36 1016.92 1016.73 1016.56 1016.87 1017.00 1016.67 1016.84 1016.95 1017.58 1018.04 1018.72 1019.13 1018.79 1018.67 1019.67 1019.40 1020.20 1020.63 1021.39 1021.79 1022.40 1023.18 1024.45 1025.47 1025.86 1025.60 1025.61 1025.74 1025.64 1025.81 1026.68 1027.00
1022.93 1023.02 1022.86 1022.44 1022.60 1022.22 1020.97 1020.49 1020.23 1020.24 1020.55 1018.59 1017.71 1016.91 1016.69 1016.70 1017.11 1017.07 1016.92 1017.29 1017.40 1018.22 1018.81 1019.31 1019.28 1018.99 1018.75 1019.30 1019.50 1020.29 1020.57 1021.22 1021.87 1022.70 1023.51 1023.56 1024.85 1024.76 1024.68 1024.81 1024.83 1024.85 1025.19 1025.86 1026.30
1022.90 1022.83 1022.70 1022.97 1023.03 1022.06 1020.82 1020.66 1020.25 1020.65 1020.84 1018.89 1017.68 1017.01 1016.72 1017.09 1017.32 1017.31 1017.12 1017.25 1017.87 1018.69 1019.04 1020.02 1019.81 1019.57 1019.20 1019.39 1019.35 1019.92 1020.32 1021.04 1021.94 1022.84 1023.41 1023.52 1024.21 1023.02 1023.36 1023.94 1023.49 1023.68 1024.00 1024.65 1025.07
1022.84 1022.80 1022.78 1023.07 1023.36 1021.71 1020.83 1020.70 1020.81 1021.89 1020.56 1018.97 1017.83 1017.38 1017.35 1017.51 1017.52 1017.55 1017.72 1017.64 1018.25 1019.04 1019.68 1020.10 1019.99 1019.95 1019.78 1019.33 1019.47 1019.75 1020.60 1021.62 1022.76 1023.70 1023.94 1023.02 1023.31 1022.19 1022.13 1020.92 1021.63 1022.08 1022.58 1023.28 1024.18
1022.75 1022.61 1022.90 1022.66 1022.23 1021.41 1021.02 1021.51 1023.02 1022.86 1020.46 1019.49 1018.37 1017.99 1017.89 1018.38 1018.31 1018.01 1018.41 1018.67 1019.20 1020.04 1020.79 1020.63 1020.61 1020.39 1020.16 1019.94 1020.13 1020.60 1021.90 1023.87 1024.69 1025.15 1024.36 1022.53 1022.53 1020.37 1019.64 1019.25 1019.10 1019.90 1021.10 1022.10 1023.17
1022.80 1022.59 1022.40 1022.40 1021.72 1021.86 1021.84 1022.89 1023.13 1021.52 1020.33 1019.12 1018.43 1018.54 1018.72 1018.34 1018.77 1018.96 1019.16 1019.61 1019.62 1020.10 1020.89 1021.25 1021.49 1021.14 1020.95 1020.86 1021.09 1021.65 1022.63 1024.42 1025.43 1025.96 1024.75 1022.52 1021.27 1019.09 1018.49 1017.79 1018.23 1019.09 1019.96 1021.36 1022.70
1022.75 1022.43 1022.22 1021.45 1021.62 1022.23 1022.94 1023.61 1022.00 1021.04 1019.59 1019.12 1018.99 1019.12 1019.10 1018.58 1018.59 1019.32 1019.91 1020.02 1019.75 1020.07 1020.80 1021.44 1021.80 1021.79 1021.57 1021.43 1021.70 1022.19 1023.18 1024.09 1025.43 1026.36 1025.67 1023.20 1020.84 1019.06 1018.27 1018.10 1018.41 1019.23 1020.21 1021.26 1022.23
1022.63 1022.28 1021.94 1020.73 1021.32 1022.34 1023.36 1022.54 1020.94 1019.47 1018.79 1018.75 1019.00 1019.04 1019.22 1019.26 1019.01 1019.70 1019.94 1019.71 1019.66 1019.86 1020.17 1021.48 1022.31 1022.60 1022.24 1021.99 1022.42 1022.81 1023.58 1024.79 1026.16 1027.26 1026.24 1023.89 1021.97 1019.99 1019.08 1018.93 1018.87 1019.43 1020.20 1021.13 1022.20
1022.71 1022.28 1021.18 1021.05 1021.08 1022.83 1022.87 1021.72 1019.98 1018.32 1017.98 1018.30 1018.69 1018.90 1019.07 1018.99 1019.15 1019.78 1020.17 1019.94 1019.64 1020.23 1020.39 1021.41 1022.54 1023.68 1023.27 1022.96 1023.08 1023.60 1024.31 1025.45 1026.37 1027.23 1026.70 1025.32 1022.30 1020.35 1019.38 1019.19 1019.40 1019.76 1020.38 1021.16 1022.02
1022.48 1022.12 1021.04 1021.12 1021.82 1022.36 1022.12 1020.41 1018.86 1018.09 1017.81 1017.91 1018.19 1018.48 1018.93 1019.19 1019.30 1019.85 1020.22 1019.99 1020.09 1020.27 1021.09 1021.98 1023.31 1024.23 1023.94 1023.59 1023.75 1024.15 1024.70 1025.63 1027.11 1027.80 1027.29 1025.82 1022.55 1020.37 1019.80 1019.22 1019.57 1020.05 1020.59 1021.31 1022.17
1022.03 1021.34 1021.82 1021.42 1021.68 1022.15 1021.13 1019.79 1018.74 1018.09 1017.87 1018.14 1018.29 1018.47 1018.75 1019.36 1019.97 1020.12 1020.28 1020.36 1020.36 1020.44 1021.25 1022.14 1023.88 1024.74 1024.57 1024.71 1024.73 1024.97 1025.50 1026.45 1027.01 1027.43 1027.00 1026.19 1023.02 1020.90 1020.31 1019.93 1020.03 1020.50 1021.35 1022.35 1023.11
1021.60 1021.20 1022.02 1022.37 1021.52 1021.48 1020.49 1019.52 1018.82 1017.73 1017.73 1017.89 1018.35 1018.66 1019.08 1019.60 1019.83 1020.44 1021.06 1021.13 1021.14 1021.24 1021.60 1022.15 1023.82 1024.58 1024.81 1024.72 1025.17 1025.70 1026.07 1026.75 1027.05 1027.74 1026.34 1025.01 1023.00 1021.59 1021.10 1020.94 1021.09 1021.76 1022.28 1023.09 1024.01
1021.43 1020.71 1020.05 1021.03 1021.42 1020.78 1020.11 1018.89 1018.64 1017.95 1017.60 1017.84 1018.62 1018.82 1019.26 1020.01 1020.36 1020.79 1021.38 1021.76 1022.03 1022.01 1022.21 1022.85 1024.21 1024.79 1024.81 1024.93 1025.05 1025.12 1025.55 1026.31 1026.45 1025.60 1025.46 1023.65 1022.92 1021.62 1021.30 1021.41 1021.77 1022.26 1022.98 1023.70 1024.71
1020.53 1020.26 1019.92 1019.76 1020.42 1020.02 1019.50 1018.49 1017.83 1017.79 1017.76 1018.08 1018.56 1018.98 1019.44 1020.07 1020.35 1021.10 1021.31 1021.81 1021.95 1022.63 1022.76 1023.47 1024.46 1025.06 1025.31 1024.99 1025.02 1024.95 1024.92 1024.77 1024.82 1024.39 1023.99 1023.33 1022.40 1021.41 1021.47 1021.35 1021.87 1022.74 1023.46 1024.34 1025.33
1020.25 1019.82 1019.02 1019.35 1019.37 1019.76 1018.44 1017.61 1016.94 1017.32 1017.47 1017.47 1018.27 1019.05 1019.73 1020.02 1020.36 1020.65 1020.98 1021.33 1021.64 1022.47 1023.42 1024.34 1025.43 1026.41 1026.46 1025.81 1025.20 1024.70 1023.18 1023.03 1023.00 1022.87 1022.76 1022.90 1021.68 1021.47 1021.42 1021.61 1022.03 1023.04 1023.85 1024.75 1025.84
Wind_Speed
10 12 13 14 15 16 17 18 18 18 16 18 18 18 19 19 20 6 7 6 4 9 6 7 5 5 3 5 5 6 7 5 7 7 7 6 5 4 4 4 3 2 4 3 5
11 13 13 15 14 15 18 19 18 18 19 18 17 17 16 15 4 5 5 5 7 6 4 6 8 9 4 5 5 7 5 5 4 5 7 7 6 6 4 1 5 3 3 1 2
11 12 13 14 14 15 17 18 19 19 20 19 17 18 17 7 4 6 9 12 8 4 1 2 0 3 7 5 6 5 5 5 4 10 11 8 6 3 8 3 2 6 4 3 4
9 11 13 14 15 15 16 18 19 19 20 20 18 19 22 1 2 6 15 19 14 7 1 7 6 6 7 7 6 10 6 6 7 8 7 8 5 4 2 3 6 8 5 3 5
10 10 12 14 15 16 16 17 19 19 19 21 17 18 6 7 4 9 17 15 10 2 2 6 12 5 10 10 23 17 8 9 13 12 7 10 6 4 5 4 4 5 5 5 7
10 11 12 13 14 16 17 17 19 19 19 19 15 18 2 6 5 11 16 9 3 7 6 8 12 12 10 4 7 9 18 11 12 10 6 11 3 4 4 4 4 3 6 7 9
9 11 13 14 15 16 17 18 20 20 19 18 11 4 5 2 6 11 10 6 5 13 15 6 5 10 5 17 17 20 22 11 8 4 6 11 8 3 4 7 8 7 6 7 8
10 10 12 14 16 17 18 19 21 21 17 15 10 1 0 6 7 11 11 11 9 9 10 10 12 11 7 8 7 9 5 6 6 10 8 5 4 6 7 9 7 8 7 7 5
8 10 12 14 16 18 19 22 23 16 13 12 2 3 3 9 7 8 5 5 5 7 8 8 9 6 8 13 6 3 3 3 3 13 6 3 5 10 9 8 8 8 7 7 6
8 10 12 14 15 18 22 19 14 11 4 1 2 7 7 3 5 7 7 7 6 5 7 7 7 7 4 3 6 6 6 4 6 10 4 6 8 10 10 10 11 9 9 9 9
9 9 11 14 15 15 13 7 8 8 8 1 3 3 0 5 2 7 5 5 5 5 3 6 10 6 20 8 3 6 6 6 4 6 6 8 7 16 11 8 10 10 10 10 10
9 9 11 13 15 16 1 4 4 3 5 5 2 2 1 1 5 10 7 6 4 2 3 6 3 5 7 11 9 3 7 4 1 2 5 4 7 11 9 9 14 15 11 11 7
9 9 10 12 15 4 2 2 2 2 2 3 3 0 2 3 2 4 5 3 4 4 2 7 3 5 4 4 8 3 8 7 7 4 2 7 2 8 8 5 10 11 15 11 15
9 9 7 14 3 5 4 6 4 4 4 3 3 2 1 2 3 2 1 2 3 5 3 6 5 3 4 4 2 5 2 3 8 5 4 6 6 7 13 15 12 13 11 13 13
10 9 4 4 4 2 3 5 5 5 4 4 2 2 2 2 4 4 3 5 3 2 5 2 4 5 6 1 1 4 3 5 4 3 2 1 2 7 12 14 17 14 14 15 17
12 9 2 2 1 7 7 5 6 11 6 2 3 3 4 2 1 2 4 4 2 6 7 3 1 2 1 3 3 1 5 8 5 3 3 6 8 6 7 19 16 11 16 17 18
13 9 4 1 4 6 4 5 8 7 4 4 4 4 5 2 2 3 2 2 4 6 1 3 3 3 1 5 6 7 7 5 5 5 7 2 1 12 10 7 19 23 18 18 18
14 8 4 5 3 7 4 7 6 5 6 3 4 6 4 7 2 2 4 1 1 3 3 5 1 3 5 3 5 1 6 7 5 3 5 6 6 8 6 12 8 16 14 13 15
6 1 2 4 5 4 6 4 11 8 6 7 4 4 4 2 7 3 5 5 5 6 5 4 1 1 5 4 3 3 2 3 5 3 1 5 7 6 4 5 4 9 10 13 15
1 1 3 4 6 5 5 7 5 5 5 5 6 6 7 7 6 5 4 4 4 4 4 3 4 4 2 2 3 2 3 3 4 2 5 5 6 6 4 4 2 5 10 11 12
1 2 2 3 3 5 6 8 6 5 6 6 6 6 6 6 6 6 4 3 1 3 2 5 6 4 3 3 6 1 1 4 4 5 5 2 7 5 10 7 8 7 8 11 14
2 3 2 6 5 3 4 7 5 6 2 3 4 3 5 3 5 7 8 3 4 5 5 1 6 4 5 2 1 2 5 5 7 5 3 3 8 5 6 5 4 6 8 10 12
3 2 1 3 8 3 5 5 2 5 5 5 4 3 3 7 4 3 3 2 4 4 7 5 1 3 7 6 5 3 2 4 3 3 5 6 8 3 5 8 5 4 7 8 11
2 3 3 2 0 6 7 8 4 4 5 5 5 4 3 4 2 6 2 3 6 3 6 7 4 7 9 5 5 1 3 1 5 3 4 7 4 5 7 2 1 7 8 11 13
4 5 5 7 10 8 12 9 8 4 4 7 2 5 6 4 3 4 3 2 4 2 3 5 5 2 5 4 4 5 5 7 7 8 8 12 7 11 4 1 6 7 11 15 15
2 4 2 1 12 15 11 9 19 11 8 6 8 8 6 6 7 8 7 5 5 0 3 2 2 2 3 4 8 5 9 9 10 8 9 12 18 13 10 7 8 11 14 14 14
1 4 1 4 15 10 14 15 15 9 5 11 10 7 6 7 5 2 4 5 9 8 4 5 6 4 4 3 3 5 11 15 7 6 6 8 11 4 6 7 8 12 13 15 14
Wind_Direction
352 354 350 350 347 342 337 333 334 331 334 325 328 324 324 333 320 8 28 238 277 310 304 316 27 37 91 71 50 112 77 146 144 146 151 136 96 24 24 84 43 42 120 177 259
349 349 350 345 343 343 336 330 330 331 327 323 326 322 319 333 325 333 260 307 273 247 336 34 319 26 44 39 34 68 89 142 130 128 127 115 104 137 105 351 40 44 61 232 96
344 344 346 344 337 343 334 329 325 329 324 320 325 322 317 318 31 293 321 336 240 195 250 181 242 81 58 44 7 25 91 93 71 103 116 123 124 119 125 31 199 173 184 180 85
335 338 338 341 335 337 331 326 325 326 321 317 325 324 321 223 76 280 331 327 312 162 273 19 42 52 68 51 45 93 56 90 114 89 102 129 115 76 23 182 151 172 169 164 120
329 335 331 336 335 328 327 326 322 321 318 314 327 325 343 34 304 289 317 310 311 309 184 121 72 87 88 92 76 82 90 77 90 87 81 81 57 97 68 108 123 155 166 145 123
322 331 329 332 330 324 323 324 318 317 315 312 328 324 24 58 287 311 318 325 348 56 68 78 99 103 85 75 64 116 99 88 94 90 108 106 117 75 251 161 154 219 178 127 124
316 326 327 327 324 323 322 321 316 311 309 305 327 329 46 228 325 318 344 336 41 96 95 78 116 88 117 83 101 109 102 89 116 129 136 126 23 86 189 181 199 164 138 120 121
311 324 321 323 322 324 320 318 310 304 300 296 319 222 219 275 306 1 344 7 36 51 85 92 81 92 74 116 69 93 55 118 220 149 188 92 201 222 200 166 160 154 144 133 137
305 316 317 319 322 323 321 315 303 294 283 290 348 77 324 318 10 330 27 354 357 52 56 67 69 83 49 111 72 356 157 163 177 204 137 157 166 224 195 167 172 172 153 149 130
298 309 313 316 326 326 322 303 293 318 357 163 304 52 345 301 308 330 332 5 30 40 38 53 64 82 49 122 166 174 127 224 195 207 150 148 199 188 197 169 176 180 171 168 170
294 303 311 316 325 329 343 3 16 350 31 94 299 146 284 300 3 353 342 356 31 47 81 5 107 143 191 196 99 154 143 153 241 203 137 195 175 189 191 179 178 189 185 186 181
291 297 307 318 319 319 312 59 97 249 328 317 344 41 318 281 54 342 14 60 57 41 79 34 149 180 196 238 269 104 131 209 336 195 124 168 216 196 194 200 188 189 196 187 181
292 290 301 315 318 342 332 6 322 37 270 296 306 269 279 43 103 331 37 323 66 51 152 139 218 291 109 69 66 81 162 181 169 158 95 132 313 215 236 212 212 201 195 184 177
287 280 305 317 341 303 325 320 346 76 56 255 271 241 267 110 47 276 42 91 37 128 113 89 344 346 79 93 90 110 319 176 124 101 211 156 266 209 211 218 210 206 189 183 184
288 278 289 21 288 340 284 321 342 64 50 258 147 281 275 131 146 341 319 39 84 38 94 252 16 16 73 83 96 162 139 145 141 111 44 263 29 265 165 220 222 213 198 190 188
316 260 263 166 266 255 307 352 46 47 258 195 135 172 94 36 86 73 24 45 127 68 31 130 41 64 222 42 57 105 54 41 62 67 344 218 166 265 187 217 211 212 203 191 189
320 250 178 321 222 338 333 45 49 128 278 209 169 145 135 150 52 93 67 57 133 100 1 36 357 336 351 68 5 67 58 7 357 4 227 19 214 246 228 228 204 201 200 193 185
305 221 227 233 301 17 36 56 101 228 213 222 133 127 185 144 153 169 104 268 211 103 121 149 287 356 333 80 157 55 133 150 206 218 278 303 241 252 264 235 211 205 199 177 176
163 168 268 243 220 86 76 83 201 204 186 139 80 143 195 85 121 116 197 206 219 170 143 126 344 27 38 14 72 264 122 168 118 4 36 259 292 329 37 65 141 192 160 174 175
247 131 252 225 149 77 88 222 220 211 139 107 152 164 194 179 122 145 199 230 185 192 139 152 96 360 346 28 24 61 155 75 358 198 255 285 273 242 263 196 113 163 185 174 164
194 147 227 137 109 58 168 223 234 218 139 133 178 159 211 166 143 165 210 0 25 103 143 113 110 285 23 208 191 89 233 59 117 140 177 274 267 221 275 210 184 194 182 166 165
138 216 75 190 138 158 181 197 229 175 115 132 124 120 157 184 144 176 186 196 314 157 111 88 126 165 196 261 321 208 208 151 125 248 238 156 275 325 359 284 216 190 178 168 152
176 141 98 328 151 203 264 230 255 168 147 155 138 145 156 160 148 174 135 245 276 99 148 171 16 53 346 353 355 228 27 87 109 84 212 136 262 298 18 28 40 110 110 112 108
104 129 131 169 320 201 197 203 218 217 160 133 143 114 116 131 97 173 124 3 353 79 117 100 145 163 186 196 148 204 223 166 132 137 191 229 273 281 337 250 91 85 101 108 110
199 224 160 173 196 197 205 181 187 202 183 138 84 159 154 143 120 144 114 73 10 348 77 102 170 143 228 222 190 195 193 189 192 214 183 252 223 254 162 163 219 143 126 120 121
190 152 180 152 168 196 194 208 189 214 157 202 144 172 172 143 170 192 140 182 190 252 123 56 216 153 295 241 224 237 239 216 221 245 247 262 272 265 271 293 163 159 139 131 129
244 265 66 167 174 179 203 201 198 164 224 167 158 141 167 195 153 218 175 160 161 143 137 134 124 99 256 338 11 330 235 218 201 204 175 211 243 267 255 226 162 150 145 137 131